This is the latest recevied weather packets stored in our database for station/object AJ1L. If no packets are shown the sender has not sent any weather packets the latest 10 day(s).
| Time | Temp. | Humidity | Pressure | Rain* | Wind** | Luminosity | Snow |
|---|---|---|---|---|---|---|---|
| 1787969205 | 22.78° C | 80% | 1015.8 hPa | 0 mm | - | - | - |
| 1787968206 | 22.78° C | 82% | 1015.6 hPa | 0 mm | - | - | - |
| 1787967217 | 22.78° C | 84% | 1015.6 hPa | 0 mm | - | - | - |
| 1787966205 | 22.78° C | 85% | 1015.4 hPa | 0 mm | - | - | - |
| 1787965205 | 23.33° C | 87% | 1015.2 hPa | 0 mm | - | - | - |
| 1787964208 | 23.33° C | 88% | 1015.2 hPa | 0 mm | - | - | - |
| 1787963205 | 23.33° C | 88% | 1015.3 hPa | 0 mm | - | - | - |
| 1787962205 | 23.89° C | 87% | 1014.9 hPa | 0 mm | - | - | - |
| 1787961207 | 23.89° C | 86% | 1014.7 hPa | 0 mm | - | - | - |
| 1787959206 | 24.44° C | 84% | 1014.4 hPa | 0 mm | - | - | - |
| 1787958205 | 24.44° C | 84% | 1014.4 hPa | 0 mm | - | - | - |
| 1787956207 | 25° C | 82% | 1014.3 hPa | 0 mm | - | - | - |
| 1787955206 | 25° C | 83% | 1014.4 hPa | 0 mm | - | - | - |
| 1787954211 | 25° C | 83% | 1014.7 hPa | 0 mm | - | - | - |
| 1787953205 | 25° C | 82% | 1014.4 hPa | 0 mm | - | - | - |
| 1787952205 | 25.56° C | 80% | 1014.6 hPa | 0 mm | - | - | - |
| 1787951206 | 26.11° C | 81% | 1014.2 hPa | 0 mm | - | - | - |
| 1787950205 | 25.56° C | 81% | 1014.2 hPa | 0 mm | - | - | - |
| 1787949205 | 26.11° C | 80% | 1014.4 hPa | 0 mm | - | - | - |
| 1787948205 | 26.67° C | 78% | 1014.2 hPa | 0 mm | - | - | - |
| 1787947213 | 27.78° C | 76% | 1014.3 hPa | 0 mm | - | - | - |
| 1787946205 | 28.89° C | 72% | 1014.2 hPa | 0 mm | - | - | - |
| 1787945207 | 29.44° C | 61% | 1014.4 hPa | 0 mm | - | - | - |
| 1787944207 | 30° C | 61% | 1014.3 hPa | 0 mm | - | - | - |
| 1787943205 | 30° C | 62% | 1014.4 hPa | 0 mm | - | - | - |
* Rain latest hour (hover to see other rain measurements)
** Current wind speed in m/s (hover to see current wind gust speed)